sat.trackr.live / text

‹ back to catalog

STARLINK-34568

NORAD 64717 · 2025-142X

PAYLOAD ACTIVE UNKNOWN

§ Identity

Operator
Country
US
Launch date
2025-06-28
Launch site
AFWTR
Launch vehicle
Mass (kg)
RCS (m²)

Purposes: comms

External: N2YO · Heavens-Above · Gunter

§ Orbital elements

Epoch: 2026-05-25T05:18:24.394752Z

Period
96.11 min
Inclination
70.0001°
Eccentricity
0.0003835
Mean motion
14.98338052 rev/d
Perigee alt
569.4 km
Apogee alt
574.7 km
Semi-major
6,950.2 km
B*
2.6747e-4
RAAN
121.5256°
Arg perigee
266.6859°
Mean anomaly
93.3862°
Rev number
5,095

§ Raw data

STARLINK-345681 64717U 25142X   26145.22111568  .00003101  00000+0  26747-3 0  99962 64717  70.0001 121.5256 0003835 266.6859  93.3862 14.98338052 50951

JSON: /api/v1/satellites/64717 · /tle

For live sub-satellite position, see the globe view (requires WebGL).

§ Visibility from observer

Set your observer location to see the next 7 days of passes ≥ 10°. The values pass through the URL so the page stays shareable.

No JS? Fill the form by hand. The geolocation button needs JavaScript.